Regional Weather Roundup
Issued by NWS Sterling, VA

Home | Current Version | Previous Version | Text Only | Print | Product List | Glossary Off
Versions: 1 2 3 4 5 6 7 8 9 10 11 12 13 14 15 16 17 18 19 20 21 22 23 24 25 26 27

415
ASUS41 KLWX 211410
RWRLWX

REGIONAL WEATHER ROUNDUP
NATIONAL WEATHER SERVICE BALTIMORE MD/WASHINGTON DC
1000 AM EDT THU MAY 21 2015

Note: "FAIR" indicates few or no clouds below 12,000 feet
with no significant weather and/or obstructions to visibility.
 TC=TEMPERATURE CELSIUS

 * =Non NWS site. Station does not report precipitation (e.g. rain,
    snow, etc.), thunder, or fog.

DCZ001-MDZ009-015-VAZ040>042-051-053>054-211500-
WASHINGTON METRO

CITY           SKY/WX    TMP DP  RH WIND       PRES   REMARKS
WASHINGTON NAT LGT RAIN  58  47  66 E6        30.02R
DULLES         LGT RAIN  53  48  83 NE3       30.02R
ANDREWS AFB    LGT RAIN  54  47  77 E3        30.01R
QUANTICO       CLOUDY    56  50  80 E10       30.02R
COLLEGE PARK*  CLOUDY    54  46  76 CALM      30.02S
LEESBURG*      LGT RAIN  54  52  94 CALM      30.03R
MANASSAS*      CLOUDY    54  52  94 E3        30.02R
GAITHERSBURG*  CLOUDY    52  46  82 CALM      30.06R

$$

MDZ006>007-011-014-211500-
BALTIMORE METRO

CITY           SKY/WX    TMP DP  RH WIND       PRES   REMARKS
BWI AIRPORT    LGT RAIN  54  41  61 E7        30.02R
MD SCIENCE CTR   N/A     55  44  66 MISG      30.03R
MARTIN STATE   RAIN      55  46  71 CALM      30.04R
ANNAPOLIS      LGT RAIN  57  44  62 E6        30.02R
FORT MEADE*    CLOUDY    52  46  82 CALM      30.05R

$$

MDZ012-015-019>023-211500-
MARYLAND EASTERN SHORE

CITY           SKY/WX    TMP DP  RH WIND       PRES   REMARKS
OCEAN CITY     LGT RAIN  60  49  66 SE9       29.99F
SALISBURY      LGT RAIN  57  49  74 E6        30.00S
BAY BRIDGE AP*   N/A    N/A N/A N/A E5        30.02R
CAMBRIDGE*     CLOUDY    55  50  82 E5        29.99S
EASTON*        LGT RAIN  55  48  76 E3        30.05S

$$

MDZ017>025-211500-
SOUTHERN MARYLAND

CITY           SKY/WX    TMP DP  RH WIND       PRES   REMARKS
PATUXENT RIVER LGT RAIN  57  49  74 E14       29.97S
ST INIGOES     LGT RAIN  57  53  86 NE9       29.96F FOG
LEONARDTOWN*   CLOUDY    54  48  82 CALM      30.00F

$$

MDZ003>005-211500-
NORTH CENTRAL MARYLAND

CITY           SKY/WX    TMP DP  RH WIND       PRES   REMARKS
FREDERICK*     CLOUDY    54  52  94 NE5       30.05R
HAGERSTOWN APT LGT RAIN  52  47  83 N7        30.02R
WESTMINSTER*   LGT RAIN  52  43  71 NE5       30.03R

$$

MDZ501>502-211500-
WESTERN MARYLAND

CITY           SKY/WX    TMP DP  RH WIND       PRES   REMARKS
OAKLAND*         N/A     41 N/A N/A SE14      29.97S FOG
CUMBERLAND*    CLOUDY    50  46  87 CALM      30.06R

$$

VAZ025>031-211500-
SHENANDOAH VALLEY

CITY           SKY/WX    TMP DP  RH WIND       PRES   REMARKS
WINCHESTER*    RAIN      52  45  76 E3        30.02R
FRONT ROYAL*   CLOUDY    50  48  93 CALM      30.00S
LURAY*         DRIZZLE   52  52 100 NE3       30.00R
NEW MARKET*    CLOUDY    50  48  95 CALM      29.99S
STAUNTON*      CLOUDY    54  49  85 N6        30.00S
WAYNESBORO*    CLOUDY    53  46  77 CALM      29.98S

$$

WVZ021-048>050-054>055-211500-
EASTERN WEST VIRGINIA PANHANDLE

CITY           SKY/WX    TMP DP  RH WIND       PRES   REMARKS
MARTINSBURG    LGT RAIN  53  48  83 N5        30.03R
PETERSBURG*    LGT RAIN  50  47  88 CALM      30.01S

$$

VAZ036>039-050-211500-
CENTRAL FOOTHILLS

CITY           SKY/WX    TMP DP  RH WIND       PRES   REMARKS
CHARLOTTESVILL LGT RAIN  55  48  77 N5        29.98S
CULPEPER*      CLOUDY    53  51  92 N6        30.01S
ORANGE*        CLOUDY    55  52  88 CALM      29.99F
GORDONSVILLE*  CLOUDY    54  51  89 NE5       29.97F
WARRENTON*     CLOUDY    53  52  96 NE3       30.00R

$$

VAZ055>057-211500-
NORTH AND CENTRAL PIEDMONT

CITY           SKY/WX    TMP DP  RH WIND       PRES   REMARKS
FREDERICKSBRG* RAIN      58  53  84 CALM      30.00R
STAFFORD*      LGT RAIN  54  51  89 NE5       30.04R

$$

NCZ024-NYZ072-PAZ021-071-VAZ022-071-211500-
OTHER REGIONAL OBSERVATIONS

CITY           SKY/WX    TMP DP  RH WIND       PRES   REMARKS
NEW YORK CITY  CLOUDY    59  35  40 CALM      30.02F
PHILADELPHIA   LGT RAIN  57  40  52 CALM      30.03R
PITTSBURGH     CLOUDY    49  41  74 NE9       29.98S
ROANOKE        RAIN      55  52  89 E3        29.97R FOG
RICHMOND       HVY RAIN  57  54  89 NE7       29.95F FOG
RALEIGH        CLOUDY    65  60  84 CALM      29.88F

$$

ANZ530>537-211500-
MARINE OBSERVATIONS

STATION/POSITION TIME  TEMP    WIND        PRES
                       AIR SEA DIR/SP/G
                 (UTC) (F)     (DEG/KT/KT) (MB)
THOMAS PT LIGHT  1400   56 66  100/  8/ 10 1017.1R
BALT KEY BRIDGE  1300   57      90/ 10/ 12 1016.0R
COVE POINT       1300   56     110/ 13/ 16 1016.0F
LEWISETTA        1300   61 72              1014.7F
PINEY POINT      1300          130/ 15/ 17   N/A

$$




USA.gov is the U.S. government's official web portal to all federal, state and local government web resources and services.